Wind_Gust
16 15 15 14 13 13 14 13 14 13 12 12 10 10 10 9 8 8 8 7 8 8 9 11 12 11 12 13 13 13 13 14 14 13 14 15 15 14 15 16 16 16 16 16 17 16 18 19 18 18 18 17 17 17 16 16 14 14 14 13 14 14 15 16 19 21 20 18 20 22 22 20 21 20 23 22 22 22 17 23 22 20 22 22 23
18 17 15 14 14 14 14 14 14 14 12 12 11 11 10 10 8 8 7 8 8 10 12 12 11 11 13 14 14 14 14 15 14 14 15 15 15 15 16 17 17 17 16 17 17 17 17 19 20 20 19 19 19 19 19 18 16 15 16 15 15 14 14 18 17 19 21 19 20 18 19 20 23 19 20 19 21 22 24 22 24 26 24 26 26
19 18 16 15 15 15 15 15 15 13 13 12 12 12 11 10 10 9 10 10 10 10 11 11 12 12 13 14 14 14 15 15 14 15 16 16 17 16 16 17 17 17 17 18 18 18 18 19 20 19 18 19 18 18 19 19 18 18 18 16 16 15 15 15 18 20 20 21 19 20 17 17 19 21 20 19 18 19 20 24 24 22 24 22 24
20 19 18 17 16 16 16 16 15 15 14 13 13 12 11 10 10 11 12 11 13 11 11 12 13 13 14 14 14 15 15 15 16 16 17 17 17 17 17 17 17 17 18 19 18 18 19 19 19 20 20 19 20 19 20 20 18 18 18 17 16 17 16 16 15 17 19 22 21 22 20 18 18 18 18 18 20 19 21 24 23 24 21 21 22
21 21 19 18 18 17 17 17 16 15 14 14 13 13 12 12 11 13 13 13 13 13 12 12 12 13 13 14 15 15 15 16 16 16 15 15 16 16 16 16 16 17 16 17 14 18 18 19 20 19 20 20 19 20 20 19 19 18 18 18 18 17 18 17 17 16 18 20 21 20 20 18 19 18 17 22 18 19 18 19 20 21 20 19 19
20 20 21 20 19 19 18 17 17 16 16 15 14 14 14 13 14 13 15 15 13 12 12 12 12 14 15 15 15 16 16 16 16 16 16 15 15 15 15 15 16 17 17 17 18 18 18 19 20 20 20 20 19 19 19 18 18 17 18 19 19 18 17 17 16 16 17 18 18 21 17 20 19 19 22 21 21 22 21 21 18 17 18 19 18
21 21 21 20 20 21 20 19 17 17 16 15 15 15 15 15 16 16 15 15 14 14 14 15 13 14 16 15 16 16 16 16 15 15 15 15 16 16 15 14 15 15 16 17 17 18 19 19 19 19 21 21 20 20 20 18 18 17 18 18 18 17 18 17 18 17 17 18 18 17 20 18 18 20 21 21 21 22 22 23 23 20 18 20 22
22 22 21 21 21 22 20 19 18 18 17 16 17 16 16 16 16 15 15 15 14 15 15 16 15 15 16 16 16 16 16 16 15 15 15 15 15 15 15 14 14 14 14 16 16 17 18 19 19 20 20 20 19 19 19 19 19 18 20 19 19 18 18 18 18 19 18 18 19 21 20 21 19 20 22 21 21 21 22 23 24 23 23 22 21
23 23 22 22 21 21 19 20 19 18 18 18 18 17 17 16 16 17 16 15 15 16 16 17 17 17 17 17 18 17 18 17 16 15 13 15 14 15 15 15 14 14 15 16 16 16 18 19 20 19 19 14 14 12 12 12 17 19 19 20 20 19 19 19 20 19 19 19 20 20 21 21 21 21 23 22 22 23 23 21 22 21 23 25 22
24 24 24 23 21 22 22 19 20 19 18 17 18 18 18 18 17 17 17 17 17 16 17 16 17 17 18 18 17 17 17 16 13 14 13 15 14 14 13 14 14 14 14 15 15 16 16 17 19 20 19 18 18 14 10 8 10 12 16 17 19 20 20 20 20 20 20 20 20 21 21 21 22 21 21 20 21 21 22 22 24 23 22 22 22
24 25 25 24 23 23 22 22 21 22 18 18 18 19 20 19 18 18 18 17 17 17 17 17 16 16 18 18 18 17 17 15 15 14 15 16 13 14 13 14 14 14 14 14 15 15 16 17 16 18 18 16 18 17 17 15 10 5 5 7 11 16 19 21 21 20 22 21 21 21 21 21 21 22 21 23 23 24 24 24 25 25 25 26 28
26 25 25 24 24 25 23 23 23 22 21 21 21 20 20 20 19 19 19 18 17 16 16 17 17 17 18 19 19 19 16 11 13 14 14 16 14 15 13 14 14 14 15 15 15 14 15 16 16 17 21 23 23 22 19 18 20 12 9 8 8 7 8 13 17 21 21 22 22 21 21 21 23 22 24 25 26 25 24 25 24 25 26 26 26
26 26 26 25 25 24 24 24 24 22 22 22 20 20 21 21 20 20 20 18 17 18 18 18 17 17 18 19 20 19 17 11 12 14 14 15 15 15 16 14 15 14 15 15 15 15 14 14 15 17 20 18 22 24 24 22 16 13 13 15 10 9 8 9 9 13 19 21 21 21 22 23 22 22 23 23 23 24 24 25 25 26 26 27 26
27 27 27 26 25 24 24 24 23 22 21 21 21 22 21 21 20 20 20 19 18 18 18 17 17 18 18 19 19 19 16 12 12 13 14 15 14 14 16 14 14 14 14 14 14 14 15 15 15 16 17 19 21 21 23 22 21 19 20 17 17 19 12 11 9 10 11 18 18 20 20 21 20 20 20 19 21 23 25 26 26 27 27 27 26
26 25 26 26 25 24 25 24 23 22 22 22 21 22 21 21 21 20 20 20 20 20 19 18 18 18 18 18 19 18 13 12 12 13 13 13 15 14 14 12 13 12 12 12 12 13 13 14 14 15 17 18 19 19 21 22 20 20 19 18 17 18 16 17 17 17 17 17 16 16 16 16 17 18 18 19 19 21 22 25 27 26 27 26 25
27 25 25 26 26 25 24 23 22 22 23 23 23 23 21 22 22 20 20 19 19 19 18 18 19 20 19 18 18 18 14 9 10 10 11 12 13 16 11 11 12 12 12 13 13 14 14 14 14 15 16 17 16 18 18 23 20 20 19 19 18 18 17 9 12 13 13 14 15 15 15 14 11 16 15 18 20 21 23 25 23 21 25 27 27
28 26 26 26 25 25 24 24 23 23 24 24 24 22 22 22 21 21 20 20 20 20 20 20 19 20 19 18 17 17 15 8 7 9 10 13 12 15 10 12 12 12 13 14 14 15 16 16 14 16 15 17 15 16 17 20 19 20 19 19 19 19 19 17 15 13 14 14 13 16 17 17 16 13 12 13 14 19 23 23 22 24 25 26 26
27 26 27 26 24 24 24 24 24 24 24 25 23 22 22 21 20 20 21 22 22 22 21 20 18 18 18 19 18 16 15 11 7 9 10 14 14 18 19 11 9 11 15 13 15 16 18 17 15 15 15 16 12 13 17 20 19 18 19 20 20 20 19 21 23 19 13 13 15 16 16 16 14 17 13 12 14 14 20 22 23 23 24 23 26
27 27 25 25 24 23 22 22 23 24 24 23 22 23 23 22 21 20 21 23 23 20 19 20 19 17 17 17 19 19 16 12 8 8 10 11 15 17 16 11 10 8 12 16 15 19 16 15 16 15 14 12 9 11 14 18 18 18 19 19 20 20 20 22 22 22 22 21 19 17 15 15 17 16 13 17 15 13 18 19 21 22 23 24 25
23 22 22 21 23 23 19 18 19 21 22 21 22 23 23 22 22 23 22 22 21 20 19 20 20 18 17 16 19 18 17 14 13 8 9 12 13 19 16 12 10 8 10 17 17 19 17 18 15 8 8 7 8 9 11 13 17 18 17 18 20 21 22 23 22 22 21 21 20 18 17 18 18 16 16 16 17 18 17 20 21 22 24 24 24
20 20 20 22 22 21 20 19 21 21 24 24 23 23 23 24 22 21 20 19 18 18 18 18 17 17 16 15 14 14 15 15 13 8 8 10 11 12 16 12 13 16 17 14 17 21 20 16 15 9 7 6 6 8 9 10 12 18 15 17 18 19 19 22 22 19 21 21 20 20 19 18 18 18 18 18 19 20 21 20 23 23 24 24 25
16 18 20 21 19 19 20 20 21 21 23 24 25 24 23 24 24 22 21 20 20 20 19 17 17 16 15 16 17 15 16 17 14 9 9 10 10 10 14 13 15 17 17 9 12 11 12 14 13 10 6 4 6 7 9 10 12 16 14 10 13 16 21 22 22 21 22 23 23 22 22 21 20 21 21 21 21 21 22 23 22 23 23 23 24
17 20 24 26 23 24 24 24 23 24 24 25 26 24 22 22 21 21 22 20 20 18 17 16 16 16 18 19 17 17 16 15 11 12 9 10 9 9 9 11 14 17 16 11 12 13 13 13 14 10 6 7 8 9 9 11 14 15 14 15 15 17 18 22 21 22 23 23 23 22 22 23 24 24 24 24 24 23 25 24 24 24 24 24 24
17 20 22 22 23 25 25 22 22 22 24 23 25 27 25 25 23 21 22 22 22 19 17 18 19 20 20 18 18 19 17 16 10 11 10 8 8 7 7 8 9 15 16 11 13 13 12 13 11 8 8 10 12 12 13 12 17 15 16 16 17 16 23 23 20 21 21 22 22 22 23 24 24 24 24 25 26 25 26 24 25 25 26 26 26
19 20 21 24 24 24 24 23 24 25 26 27 25 23 22 22 23 20 20 18 21 22 24 23 22 21 20 18 19 20 19 18 14 11 10 9 8 6 5 6 8 9 15 9 12 14 8 5 6 9 10 12 15 16 13 16 20 19 21 20 20 22 21 22 22 22 22 22 23 24 24 23 23 22 21 23 23 24 24 24 24 26 25 26 25
21 24 25 24 24 27 27 26 25 25 25 27 25 22 23 21 23 24 21 22 23 23 24 23 22 20 18 16 18 20 20 17 15 13 9 8 6 5 6 5 5 7 8 10 5 5 7 9 11 12 13 15 21 19 19 18 18 23 22 19 22 22 21 22 22 23 22 23 23 24 24 24 23 22 23 22 23 24 24 25 27 27 27 28 28
24 24 26 27 26 27 28 28 25 21 20 21 23 23 22 22 22 22 24 23 22 22 22 22 20 19 17 15 17 22 19 17 16 15 15 15 14 13 14 13 8 7 15 16 12 15 17 14 14 13 14 16 16 16 16 16 21 22 21 21 21 20 20 20 22 22 22 22 22 24 24 24 24 23 23 23 24 23 22 24 27 28 28 28 29
25 25 24 21 23 23 24 19 25 26 25 25 24 23 21 20 21 22 23 22 21 22 24 20 18 20 17 17 23 20 18 18 18 16 13 12 12 12 15 13 12 11 13 17 17 19 18 11 18 21 20 21 20 18 16 15 18 18 18 18 17 17 17 13 13 21 21 22 22 23 23 23 24 24 24 24 25 24 24 25 25 27 27 28 30
21 23 24 26 26 25 28 28 26 26 26 24 19 16 16 18 22 19 13 14 20 23 22 21 17 16 20 23 22 19 19 15 13 8 15 10 14 16 17 17 16 14 14 8 16 19 17 17 15 16 15 16 17 17 17 18 18 18 18 17 18 19 19 21 23 24 24 22 23 24 24 24 24 24 24 25 24 25 22 23 23 25 26 27 28
23 25 26 25 25 26 26 25 24 23 23 22 20 17 14 17 15 11 13 9 18 16 11 17 16 18 18 19 17 17 17 17 13 22 18 17 15 13 10 11 10 13 10 12 12 18 17 16 15 16 17 17 18 18 18 19 19 19 20 12 19 20 21 23 26 25 23 23 24 24 24 24 24 24 24 25 24 24 24 18 25 24 26 27 28
22 23 24 24 25 26 26 24 24 23 23 23 22 21 18 21 19 20 15 14 18 20 21 22 21 17 21 19 19 26 23 20 21 20 19 16 15 13 11 11 11 12 12 16 18 17 15 16 16 16 16 17 17 18 18 19 19 19 20 20 20 23 23 23 23 22 23 24 24 24 24 24 24 24 25 25 25 25 25 23 24 24 24 25 26
24 24 25 24 26 24 26 24 24 25 25 25 24 23 21 20 19 17 18 18 20 21 23 22 22 22 24 26 20 16 16 19 20 19 17 15 12 10 9 10 9 10 12 8 17 17 16 16 16 17 16 17 17 17 18 19 20 20 21 21 23 23 23 23 22 23 25 25 25 24 24 24 24 23 24 24 23 25 25 25 25 25 25 25 26
23 23 24 25 25 24 25 25 24 24 24 25 24 23 24 24 24 21 21 18 21 20 21 22 23 22 21 21 22 18 14 15 18 17 15 13 11 9 6 6 8 10 11 16 17 16 14 15 16 16 16 17 17 18 19 18 19 19 20 23 24 23 23 22 21 23 23 24 25 25 24 23 23 23 22 23 23 25 25 25 25 26 26 27 27
23 24 26 27 26 25 23 24 24 24 24 25 24 26 26 25 25 25 25 22 24 21 18 18 19 20 20 22 22 20 18 17 16 15 13 11 10 8 6 10 8 11 12 17 15 14 14 16 16 16 16 16 17 18 18 19 20 20 21 23 25 25 23 23 24 24 23 23 24 23 22 22 22 24 24 25 24 25 26 25 26 26 27 27 28
23 16 16 19 25 25 24 24 24 23 24 24 25 26 26 25 25 25 26 25 24 22 19 17 12 14 19 17 18 18 17 15 14 13 12 10 9 9 6 17 20 20 19 21 19 15 15 16 16 15 16 16 17 17 18 18 19 19 21 23 23 24 24 24 24 23 24 24 23 21 21 22 23 22 23 24 24 25 25 26 25 26 28 28 28
23 24 25 24 24 24 23 24 23 23 24 24 25 24 24 25 25 23 23 23 22 22 19 17 15 9 16 14 16 16 15 14 13 12 10 9 9 5 15 17 17 13 13 15 16 13 14 15 15 15 15 16 17 18 18 19 19 20 20 21 22 23 23 23 22 22 22 23 21 22 20 22 22 23 24 25 24 25 26 26 26 26 26 28 28
23 24 26 25 23 23 22 23 23 24 16 20 22 24 23 22 21 22 21 22 21 19 19 18 17 15 11 13 13 11 11 11 10 9 8 9 11 14 18 16 13 13 12 12 13 13 16 15 14 15 16 17 18 18 19 19 19 19 14 20 21 21 20 22 22 21 22 21 21 21 21 23 24 24 25 25 25 25 25 25 26 26 26 28 23
21 24 25 24 21 21 21 23 21 17 22 23 22 25 27 24 21 21 21 21 21 20 20 18 12 18 19 18 15 13 14 7 7 6 6 8 15 19 17 15 13 13 12 13 13 14 15 15 15 16 17 17 18 18 18 18 19 19 19 21 22 22 13 19 17 20 19 20 21 21 22 23 24 25 23 25 26 26 26 25 27 29 29 26 22
20 15 18 18 15 26 24 24 25 25 22 22 22 22 22 24 23 22 22 21 20 18 18 19 20 19 19 20 20 16 16 17 17 17 18 18 18 17 16 14 12 11 12 13 13 14 14 15 15 16 17 17 17 17 17 18 18 19 21 22 22 22 22 22 22 22 21 21 22 22 23 24 24 25 25 25 25 25 25 26 27 27 27 26 26
22 22 19 19 20 23 21 20 21 22 21 23 24 25 24 24 23 21 21 20 20 21 21 20 22 22 21 22 20 20 19 17 17 16 16 17 18 16 15 12 11 11 12 13 13 14 14 16 16 17 17 17 17 17 17 18 19 20 21 21 22 22 22 22 22 22 22 22 23 24 24 24 25 25 25 25 25 25 26 26 25 25 26 26 28
22 23 16 15 20 24 20 22 22 22 21 22 24 23 23 21 20 18 19 21 22 23 21 21 21 22 21 20 14 15 18 16 15 15 15 15 15 16 13 11 11 11 12 13 13 14 15 16 16 17 17 17 17 17 17 17 18 19 19 20 21 20 21 20 21 21 22 23 23 24 25 24 24 26 24 24 18 23 24 25 25 25 25 27 27
26 25 24 23 23 25 23 21 21 22 21 21 23 22 20 19 19 20 20 21 22 22 22 22 22 21 17 24 18 17 18 14 13 13 14 10 11 11 10 11 11 10 12 13 14 14 15 15 15 16 15 16 16 16 16 17 19 19 20 20 20 20 20 21 21 21 21 22 23 24 24 24 24 23 24 15 24 25 26 25 25 25 26 26 25
25 25 24 23 24 23 22 22 24 24 22 22 21 15 20 23 20 20 21 21 22 22 23 22 23 19 22 23 22 19 16 14 7 11 11 11 11 10 11 11 9 10 11 12 12 13 13 14 15 14 14 16 16 17 18 19 19 19 19 18 19 20 20 20 20 20 21 22 24 23 25 25 23 22 24 22 24 25 25 25 24 25 25 26 26
24 23 22 20 21 24 23 24 22 22 22 21 21 21 21 19 20 19 21 22 22 23 25 23 19 22 19 21 19 19 18 16 16 15 15 13 11 11 11 9 9 11 11 12 12 12 13 13 13 13 13 15 15 15 17 17 17 17 18 18 18 18 20 20 21 21 22 24 24 24 25 22 22 23 21 21 25 24 25 25 26 27 27 28 28
25 26 25 26 25 25 24 21 22 22 21 18 17 17 18 20 21 22 21 23 23 23 25 24 20 22 20 21 21 20 18 19 16 15 15 15 13 11 10 8 11 10 12 11 11 12 12 12 12 12 13 14 15 17 17 17 16 16 17 18 19 21 21 21 20 20 22 24 24 23 23 22 24 25 24 24 22 25 26 26 27 20 27 26 27
25 25 25 25 23 22 22 22 21 22 21 20 21 21 21 22 22 23 24 25 25 25 25 25 22 23 21 21 20 19 18 17 17 16 15 13 11 10 9 9 12 11 11 12 12 11 11 11 12 12 13 14 16 17 18 16 16 16 16 18 19 21 21 20 19 21 23 23 24 23 24 23 26 25 22 27 26 27 27 28 27 27 26 27 27
22 23 23 20 23 21 21 22 23 23 24 25 25 26 25 26 26 24 23 26 25 23 24 23 23 25 23 21 20 20 20 19 19 18 14 11 11 9 12 12 10 11 11 11 11 11 10 10 11 12 14 15 16 17 17 17 17 17 18 20 21 20 21 21 22 23 23 23 23 24 25 25 25 25 26 26 25 28 26 28 26 27 27 26 26
22 22 21 21 23 26 27 28 28 20 26 27 26 26 26 26 27 26 25 25 26 24 23 22 23 24 21 21 19 20 20 20 18 15 12 13 12 11 13 12 9 11 11 11 10 10 10 10 11 13 14 15 16 17 17 17 17 19 18 21 23 22 21 17 22 22 21 23 24 25 25 26 26 27 27 27 27 27 27 27 25 25 26 25 25
24 24 25 26 26 26 27 28 26 28 27 27 27 28 26 28 27 26 26 25 25 25 25 24 23 23 22 21 20 21 20 17 15 14 14 11 10 13 13 9 9 10 11 10 10 10 10 11 11 13 14 15 15 16 16 17 19 19 19 20 24 20 18 17 18 21 21 26 24 25 25 26 27 27 28 27 28 28 27 26 26 26 26 25 26
25 25 25 26 26 27 27 27 29 30 27 28 28 27 27 26 27 25 25 25 24 23 26 23 22 21 20 19 18 18 17 15 16 15 13 14 13 13 14 12 10 10 11 9 10 9 10 10 12 12 14 14 15 16 18 18 19 19 19 22 18 17 17 17 17 16 21 23 25 25 26 27 27 27 27 27 27 27 27 25 25 25 25 26 26
23 25 25 27 28 27 29 30 29 31 32 31 30 29 28 29 27 27 25 24 26 25 22 24 23 21 20 17 16 17 16 17 16 14 13 12 11 13 13 11 10 9 10 10 10 9 9 11 12 14 14 15 15 16 17 19 18 20 16 15 16 18 15 14 22 17 22 20 26 26 26 26 26 28 27 28 27 27 26 26 27 27 27 26 25
Wind_Speed
8 6 6 5 5 6 5 5 4 3 6 4 4 3 2 2 2 3 2 2 1 1 1 1 3 2 4 4 4 4 4 4 4 3 4 4 5 4 5 6 6 5 5 7 7 8 8 9 9 9 8 7 6 6 7 7 6 6 6 6 5 4 4 3 3 3 3 3 4 4 5 4 4 2 2 1 3 2 3 3 3 3 3 4 4
8 7 6 6 6 6 6 5 4 3 4 6 4 4 5 3 3 2 2 2 2 3 2 3 3 3 4 5 4 5 5 5 4 4 4 4 4 4 5 5 5 5 5 6 7 7 7 8 8 7 7 7 7 7 7 6 6 6 5 6 5 6 5 4 3 3 4 4 5 6 5 5 5 4 5 2 2 2 3 3 2 1 2 4 5
9 8 7 6 7 6 6 6 6 5 5 4 5 4 4 4 4 3 2 2 1 1 1 2 3 3 4 4 5 5 5 5 4 4 4 4 4 4 4 5 5 5 6 7 8 7 7 7 8 7 6 7 7 6 7 6 5 7 7 6 5 5 5 4 3 3 4 4 3 4 3 4 3 4 6 4 3 4 4 4 4 4 3 2 3
9 9 8 7 7 7 7 6 6 6 5 5 5 5 4 4 4 2 3 4 3 1 2 3 2 3 4 4 5 5 5 4 5 5 5 5 5 5 5 5 6 6 7 7 7 7 8 7 8 8 7 8 8 7 7 7 7 7 7 6 6 7 6 6 4 3 3 5 3 3 3 4 2 4 7 8 9 9 8 8 9 9 7 5 4
10 10 9 9 8 8 8 7 7 7 6 6 5 6 4 4 3 4 3 3 2 3 2 4 3 3 3 5 5 4 5 5 4 4 4 4 4 5 5 4 5 5 6 6 7 8 8 8 8 8 8 8 8 8 8 8 8 8 8 7 7 7 7 6 7 6 6 6 5 4 4 4 5 5 6 7 7 6 7 9 8 7 7 7 6
10 9 9 9 9 9 8 8 8 8 8 6 7 6 5 4 4 3 3 3 3 3 3 2 3 4 5 6 5 5 5 4 4 4 4 4 4 4 4 4 4 5 6 7 7 7 8 8 8 8 7 7 7 7 7 7 7 7 7 7 8 8 8 8 8 7 7 7 7 6 6 7 6 6 8 9 8 7 8 8 7 6 8 7 6
10 9 10 10 9 10 9 9 8 8 7 6 6 6 6 4 4 5 3 3 4 4 3 3 4 5 6 5 6 6 5 4 4 4 5 5 4 3 3 4 4 4 7 7 7 7 7 7 6 6 7 6 6 6 6 6 6 6 7 6 6 7 7 8 8 9 8 8 7 6 7 6 6 8 8 9 7 6 8 8 9 8 6 6 8
11 10 10 10 10 10 9 9 8 8 7 7 6 5 5 5 5 4 4 4 4 5 4 5 5 7 7 7 7 6 7 8 7 5 4 4 3 3 3 3 3 4 6 8 7 7 6 6 5 5 6 5 5 4 5 5 5 5 6 6 6 6 6 7 7 8 8 8 7 7 7 7 7 7 6 7 8 9 8 7 7 8 8 8 6
10 10 10 10 10 9 9 9 7 7 8 7 7 6 5 5 5 3 4 5 5 5 6 6 8 8 8 7 8 7 7 7 5 5 5 3 4 3 3 3 3 4 5 7 7 6 6 6 5 5 6 9 10 7 6 5 4 5 5 5 6 5 6 5 6 6 7 7 7 7 6 6 6 8 7 8 8 7 7 7 7 7 7 7 8
11 11 11 10 10 10 10 8 9 8 8 8 7 7 6 4 5 4 6 6 6 7 6 7 8 8 8 8 7 6 6 5 6 11 9 6 2 4 3 3 3 3 4 4 6 8 6 6 8 15 15 14 14 12 9 7 6 3 3 3 4 4 4 5 5 5 6 6 6 6 6 6 6 7 6 6 6 6 7 7 7 7 7 7 7
11 11 11 10 10 10 10 10 9 9 9 7 6 7 7 5 5 6 6 7 7 7 7 8 7 8 8 7 7 6 5 5 10 12 12 13 7 2 3 3 2 3 3 3 4 4 5 7 7 10 11 11 11 14 14 13 10 2 2 3 4 2 3 4 3 4 5 5 5 5 5 5 6 5 6 7 6 7 7 7 7 7 8 9 9
12 12 11 10 11 12 10 11 10 10 9 9 7 7 6 6 6 6 7 8 7 7 7 8 9 8 8 8 7 6 5 6 10 11 11 12 10 5 3 3 4 4 5 4 4 4 6 5 5 5 6 9 8 8 10 14 16 7 6 3 1 3 2 2 3 4 4 5 5 5 5 4 5 4 6 6 8 8 8 8 8 8 8 8 8
12 12 12 12 12 11 11 11 11 9 9 9 7 6 7 7 7 7 9 7 7 7 9 10 9 9 8 8 7 5 5 6 8 9 9 10 11 8 4 4 5 4 5 5 5 5 4 5 6 6 7 13 10 8 7 9 12 10 7 4 4 4 4 6 7 1 3 3 4 6 5 5 5 5 5 6 5 6 7 8 8 8 8 9 8
12 12 12 12 12 11 11 11 10 10 9 8 8 8 7 9 6 7 8 8 7 9 10 10 9 9 8 8 6 5 5 5 7 8 8 9 10 7 3 4 4 4 5 4 3 3 4 4 5 5 5 6 6 8 7 8 8 5 4 2 3 5 6 4 5 7 6 4 3 4 4 4 5 3 4 4 4 5 6 8 8 9 9 9 10
13 11 12 12 11 11 12 11 10 10 10 9 8 7 6 8 10 10 8 8 9 10 10 10 9 9 9 8 7 5 3 4 7 8 8 9 10 8 1 5 5 4 4 4 5 6 5 5 5 5 4 5 5 6 8 9 8 5 4 5 6 6 1 1 5 4 5 5 4 4 5 5 4 4 4 3 3 3 3 6 8 7 8 9 8
13 11 12 11 12 11 12 11 10 10 10 9 8 8 7 9 11 9 8 8 8 8 8 9 10 10 9 8 7 6 3 4 7 7 7 9 7 3 1 4 4 5 6 5 4 4 4 4 4 5 4 3 6 10 10 8 7 6 4 4 5 4 4 3 11 11 8 7 5 5 6 7 8 7 7 4 4 4 5 6 4 6 8 7 8
14 12 11 11 11 11 11 11 10 9 9 9 10 10 12 11 10 9 9 9 9 9 9 8 9 10 9 8 7 6 4 3 4 5 5 6 3 3 2 5 5 6 7 5 5 4 4 4 3 4 3 3 5 9 10 10 5 6 6 5 4 5 5 6 10 10 12 12 10 13 14 15 13 10 10 8 7 4 4 5 6 7 8 9 8
12 12 12 11 11 10 10 10 10 9 8 8 9 10 12 10 10 9 10 10 9 8 8 9 8 8 9 8 8 6 5 3 4 3 4 5 4 2 3 3 5 6 7 6 4 4 4 10 7 4 3 2 4 6 8 7 5 5 6 6 5 6 5 6 6 7 10 11 13 14 14 14 12 8 10 9 9 3 1 4 5 6 7 7 9
11 11 12 12 11 9 8 9 9 9 8 6 10 12 13 11 10 9 9 8 8 8 8 8 7 7 8 8 11 7 4 3 3 4 5 5 4 3 5 1 5 4 6 6 5 5 5 6 9 6 4 3 3 3 5 5 4 4 5 4 5 6 5 7 7 8 8 8 7 8 9 9 4 4 6 10 9 4 1 4 5 6 7 8 9
10 8 9 11 10 9 8 8 7 5 11 11 7 10 8 9 11 10 9 8 9 8 7 8 9 7 7 8 8 7 4 2 1 5 4 7 8 6 5 6 4 1 1 9 7 5 5 4 4 6 7 5 3 1 3 3 3 4 5 3 3 6 5 7 8 7 8 8 4 5 8 8 8 5 4 2 1 3 5 5 5 6 7 7 7
6 7 8 9 11 12 12 12 8 12 12 9 7 10 9 9 10 10 10 9 8 8 8 7 7 7 7 7 8 8 7 5 2 2 5 8 9 7 3 5 4 3 4 4 8 7 6 4 3 3 5 5 2 1 2 4 3 3 5 4 4 6 6 5 9 13 9 10 4 4 4 6 6 6 6 5 5 5 6 4 4 6 7 7 6
3 4 5 7 6 5 5 5 6 10 12 13 13 12 9 10 11 11 9 10 12 11 9 7 7 6 6 8 9 8 9 11 5 2 7 9 9 8 5 4 3 3 4 2 6 6 6 5 3 5 6 4 4 3 4 5 7 4 6 9 11 12 8 6 7 7 7 7 4 4 4 4 4 5 4 4 5 6 6 5 6 5 6 5 7
0 6 9 12 13 13 11 11 9 8 10 12 13 13 11 12 12 12 13 12 11 10 9 8 8 8 7 6 5 6 6 7 9 6 7 9 8 8 6 4 4 3 3 5 7 6 5 5 4 6 5 3 5 7 7 8 5 6 11 13 12 13 8 6 7 8 8 6 3 3 3 3 3 4 4 4 4 4 5 6 5 5 3 4 5
10 9 9 10 10 10 10 10 9 10 13 13 12 12 12 12 12 11 11 11 10 9 7 8 8 9 9 7 6 7 8 7 7 9 7 7 7 7 5 4 5 3 3 5 4 4 4 3 2 5 6 7 8 9 9 8 7 12 13 13 12 9 6 7 7 7 6 5 6 4 2 1 3 4 4 5 5 4 6 5 4 4 5 4 4
10 10 8 7 8 8 9 9 9 10 11 12 12 10 10 11 11 9 10 9 9 9 8 8 8 9 8 8 8 8 7 6 5 6 9 8 7 5 4 3 5 5 4 3 3 2 3 3 6 8 8 9 10 10 9 10 13 14 15 16 11 6 6 6 7 7 6 5 6 5 6 5 5 4 5 6 5 5 4 3 4 5 5 6 5
7 8 8 7 8 7 9 10 9 9 9 8 9 9 11 9 10 10 10 9 9 9 9 9 9 9 8 8 9 9 8 6 5 4 3 5 4 2 1 2 2 6 4 2 2 3 1 4 7 8 8 9 7 6 7 8 10 14 14 11 5 6 6 6 7 6 5 4 4 5 5 4 4 5 5 4 4 5 4 5 6 6 7 7 8
7 8 8 8 6 7 9 8 9 10 10 9 8 8 8 8 10 10 9 9 9 9 9 9 8 8 9 7 9 10 8 6 6 5 4 4 3 2 1 1 5 4 2 2 2 2 5 5 6 9 11 13 12 10 9 8 7 7 6 7 6 7 6 6 4 4 4 5 4 4 5 5 6 6 5 4 3 4 3 4 4 5 6 6 7
11 11 11 10 11 11 10 13 12 9 9 10 10 9 8 8 9 9 9 9 10 9 9 9 8 8 7 7 11 10 9 8 8 7 6 5 5 4 2 1 2 4 3 2 2 3 3 5 7 7 7 7 7 7 6 5 4 1 3 5 4 4 6 7 6 5 5 5 4 4 4 5 6 6 6 5 4 4 4 4 5 6 6 6 7
6 6 5 6 7 7 8 8 7 8 9 8 6 4 6 9 8 7 5 6 6 9 10 9 9 7 7 11 11 9 9 7 6 7 8 9 7 5 4 4 3 3 2 2 2 2 2 3 4 5 3 1 3 4 5 4 4 3 3 3 4 4 4 5 5 6 6 6 5 5 5 5 6 6 6 6 6 7 6 7 6 6 6 6 7
5 5 6 5 6 7 7 7 7 8 8 7 8 7 11 13 8 3 4 2 4 5 7 8 8 5 6 3 4 9 8 8 11 18 15 14 13 11 8 7 5 3 1 4 2 1 2 4 5 6 3 3 3 3 3 4 3 4 4 4 4 4 4 4 6 5 6 7 7 6 6 6 6 6 7 8 7 6 7 7 7 7 7 7 8
5 6 6 5 7 7 7 7 8 7 7 7 6 8 6 9 15 13 9 2 9 9 9 10 14 13 12 8 9 19 18 16 17 17 16 14 13 11 10 8 7 8 10 7 4 3 3 4 4 2 3 3 3 2 3 4 4 4 4 4 4 5 3 5 6 5 6 6 7 8 8 7 7 8 8 8 8 8 7 6 7 8 8 9 9
7 8 9 7 8 8 8 8 8 7 8 7 7 7 7 6 7 13 14 9 8 14 15 14 15 17 20 19 13 7 11 16 17 16 15 13 11 9 8 8 8 8 4 4 1 2 2 4 2 3 3 3 2 3 3 3 3 3 3 4 4 2 4 3 3 3 3 3 4 5 6 6 6 7 7 8 8 7 7 7 7 8 8 9 9
4 4 5 9 9 8 7 8 7 8 9 9 8 8 8 7 7 6 9 12 12 11 14 16 16 16 17 17 18 15 12 13 15 14 13 11 10 8 6 4 4 4 4 0 1 3 5 3 2 2 2 3 3 3 2 3 3 4 3 4 4 2 3 1 1 2 2 2 3 4 5 6 6 6 6 6 7 7 7 7 7 7 8 9 9
5 5 5 9 9 8 8 7 8 8 8 9 9 9 8 8 8 8 8 6 8 11 12 12 14 16 16 18 17 16 15 14 14 13 11 10 8 6 5 2 1 2 3 2 2 3 4 1 2 2 2 2 2 2 3 3 3 3 3 4 4 4 3 3 2 5 3 3 2 3 4 5 6 6 6 6 6 6 6 7 7 8 8 8 9
6 6 11 10 8 8 7 8 8 8 9 9 9 9 9 9 10 10 9 11 9 8 6 6 8 12 13 12 15 15 14 13 12 11 11 9 7 5 3 1 0 2 2 3 5 4 4 1 2 2 2 2 2 2 3 3 3 4 3 4 4 3 4 3 4 3 3 3 3 3 3 4 5 5 6 6 7 7 7 7 7 7 8 9 9
6 6 9 11 8 7 7 8 7 8 9 9 9 8 9 10 10 8 8 9 10 10 7 5 5 7 12 12 13 13 12 11 11 10 9 7 4 2 2 2 2 4 5 7 6 7 1 2 1 2 2 2 3 3 3 4 3 3 3 3 4 5 4 4 4 4 3 4 5 6 6 5 6 7 7 7 8 8 8 7 7 7 8 8 8
7 5 9 9 8 7 7 8 8 8 8 9 8 8 10 10 8 8 9 9 8 7 8 7 7 6 7 6 7 9 9 9 9 8 7 6 4 2 1 2 2 3 2 1 1 2 2 1 2 2 2 2 2 2 3 3 3 3 3 4 4 4 3 4 4 4 6 6 6 7 8 8 8 8 7 7 7 7 8 8 7 8 8 10 10
4 4 6 7 7 6 6 7 7 10 9 8 8 8 11 10 10 10 9 8 9 9 8 8 8 8 8 5 7 5 6 6 7 5 5 5 2 1 2 3 4 4 2 0 2 3 1 1 1 2 2 2 2 2 2 3 3 4 3 3 3 3 5 4 6 7 7 6 6 7 6 7 7 7 6 7 7 7 7 7 8 9 9 10 9
4 2 7 10 8 8 6 7 9 9 7 6 7 11 10 9 9 9 8 9 9 9 9 9 8 8 8 8 7 7 7 4 3 3 3 3 3 3 4 4 5 4 1 2 2 1 1 2 1 1 2 3 2 2 3 3 3 3 3 3 3 4 5 6 6 6 5 4 4 4 4 5 5 5 6 7 7 7 8 9 9 9 9 9 9
4 2 8 16 4 6 7 8 9 10 10 11 10 10 11 10 10 10 10 10 9 9 8 8 8 8 9 9 8 7 5 4 3 3 4 5 6 6 5 5 4 2 1 2 2 1 0 1 2 2 2 2 2 4 2 3 3 3 2 3 3 3 5 5 4 4 4 3 3 3 4 4 5 6 7 8 8 8 9 9 8 9 9 9 9
5 4 4 6 10 9 8 8 8 8 10 11 11 10 10 10 8 10 10 10 9 9 8 7 7 7 8 10 12 9 5 4 4 4 5 6 7 8 7 4 2 2 2 2 1 1 2 2 2 2 2 2 3 3 3 3 3 2 2 3 3 4 4 3 2 3 3 4 4 3 4 5 6 7 7 7 7 8 8 8 8 8 8 8 8
5 5 4 5 8 7 7 7 7 10 9 9 11 9 7 7 10 10 10 9 9 8 7 6 6 6 8 16 14 12 6 4 6 6 6 5 3 3 2 1 1 1 1 2 3 2 2 2 2 3 2 3 4 3 3 3 2 2 2 2 2 3 2 2 3 4 5 3 4 5 4 5 5 6 8 7 8 8 8 8 8 8 8 9 9
5 5 5 5 5 6 6 7 8 9 9 8 8 9 12 12 11 10 9 9 8 8 7 7 6 6 8 15 15 15 7 4 3 3 2 3 4 2 3 2 2 2 4 4 3 2 3 3 2 2 3 4 3 3 2 2 2 2 2 2 2 2 2 2 3 3 5 5 4 5 5 6 6 5 7 7 8 8 8 9 9 9 9 9 8
4 5 6 5 6 6 6 7 7 8 8 12 13 11 11 10 9 9 9 8 8 8 7 7 6 6 7 11 12 9 7 5 2 2 1 1 2 3 3 3 2 6 3 3 3 4 3 2 2 2 3 2 2 1 1 2 2 2 2 2 2 2 2 3 5 4 4 5 5 5 6 6 6 7 7 7 8 9 9 9 9 9 8 8 9
4 5 6 6 7 7 7 7 7 8 9 10 9 8 9 10 9 8 8 8 8 8 7 6 6 6 9 9 9 9 7 5 4 3 3 3 4 4 2 3 6 4 4 2 4 4 3 2 1 2 1 1 1 0 1 1 1 1 1 2 1 2 4 3 3 3 3 4 3 4 5 6 7 7 7 8 8 9 8 8 9 9 9 8 9
5 5 5 5 7 7 8 8 9 9 9 9 9 8 8 8 8 8 8 8 8 7 6 6 6 9 10 10 9 8 6 6 5 5 5 6 4 4 4 5 6 4 3 3 3 3 2 2 1 0 2 0 1 1 2 2 2 2 2 5 7 4 4 3 2 3 3 4 4 4 5 5 7 7 9 9 8 8 9 10 9 9 9 9 10
5 5 6 4 6 6 8 9 9 10 9 8 9 8 8 8 8 8 8 8 8 8 7 7 8 10 10 10 9 7 6 6 6 6 6 3 3 3 7 6 5 4 4 3 3 2 3 3 2 2 1 1 0 0 0 0 2 2 7 6 6 5 4 4 3 4 4 4 4 4 4 5 6 7 9 9 8 9 8 9 8 10 9 8 8
5 5 6 7 7 8 8 9 9 9 8 8 8 9 9 8 7 8 7 8 8 8 8 8 9 11 10 9 8 7 7 7 7 7 6 5 5 5 7 7 4 3 3 2 2 2 2 2 2 1 1 2 1 1 0 0 1 7 6 6 5 5 4 5 3 4 4 4 4 4 5 6 7 8 9 9 9 8 9 8 8 8 8 8 7
5 6 7 7 7 8 9 9 9 8 8 8 9 9 8 9 8 8 8 9 9 9 9 9 8 11 11 10 10 9 9 8 8 5 3 4 6 7 7 5 5 3 1 1 2 3 3 2 2 1 0 1 2 2 2 1 5 7 6 6 5 5 5 5 2 3 4 4 3 4 6 6 8 9 9 9 9 9 8 9 9 8 8 8 8
6 6 7 7 8 8 8 8 8 7 8 9 9 8 8 8 9 10 11 10 10 10 10 11 9 7 8 9 10 10 9 7 5 4 4 5 6 7 7 7 4 4 3 3 2 3 3 3 3 2 2 2 1 1 1 6 7 6 6 5 7 5 4 3 5 4 4 3 4 4 6 7 8 8 8 8 8 9 9 8 8 9 9 10 9
6 7 7 8 8 8 8 8 7 8 9 8 8 8 9 10 11 11 11 11 11 10 11 10 8 6 7 8 8 7 7 6 5 4 4 5 6 7 7 6 5 3 2 2 2 2 2 2 2 2 3 2 1 0 5 7 5 6 7 8 6 5 5 5 3 4 4 4 4 5 6 7 8 8 8 8 8 8 10 11 10 9 9 9 10
Wind_Direction
170 176 171 181 182 164 179 177 196 177 151 152 180 181 153 189 199 168 171 211 104 2 123 79 160 169 94 49 84 77 66 57 23 58 63 47 31 31 32 33 46 23 54 60 52 41 37 36 33 36 28 31 29 26 11 4 11 27 15 13 28 16 21 4 355 324 322 328 325 327 315 6 339 333 322 56 50 7 314 298 346 341 352 335 332
175 178 174 178 184 170 172 180 179 194 165 157 196 183 169 199 198 188 187 153 138 214 165 166 88 46 67 101 80 77 70 49 50 29 47 77 60 34 34 48 31 45 42 62 57 54 48 43 32 32 31 30 28 26 9 2 10 23 18 9 15 12 2 6 335 334 330 335 339 324 327 4 325 338 358 21 50 27 332 333 313 333 14 341 332
178 179 174 179 178 174 174 178 176 194 172 162 188 198 181 197 199 157 193 144 130 247 123 130 112 118 99 89 84 70 64 59 39 48 40 50 68 61 56 37 45 42 48 53 55 51 51 45 38 29 32 31 26 20 7 3 15 23 12 2 7 9 350 342 341 333 340 320 310 322 331 324 319 354 343 355 36 2 346 336 359 10 12 342 313
179 178 174 179 177 177 180 180 182 185 176 184 187 208 190 204 165 174 210 141 179 124 150 120 108 101 106 93 96 102 104 86 60 46 42 47 47 56 48 50 49 47 54 53 55 58 50 47 38 33 31 34 24 16 8 7 18 20 11 359 6 0 345 336 341 333 322 316 306 311 310 312 327 19 23 16 13 6 6 11 8 355 347 334 318
181 179 176 179 176 179 182 183 184 186 191 181 198 200 203 194 161 200 162 141 150 154 126 94 129 132 124 110 106 105 99 100 105 88 68 53 61 56 45 50 60 61 55 60 62 60 59 52 40 39 35 35 25 18 9 13 24 17 9 2 1 353 344 341 346 344 332 328 326 332 348 1 355 29 21 21 11 6 7 9 358 343 345 341 344
185 181 178 179 178 182 184 185 188 189 187 192 193 199 194 193 162 219 171 168 151 134 114 160 126 116 103 98 95 90 85 76 81 88 91 90 78 70 73 49 45 64 72 61 59 64 67 58 50 42 39 40 29 19 11 12 21 20 12 7 3 354 353 351 349 346 352 349 349 342 358 360 357 16 23 24 14 2 4 354 348 351 339 331 330
185 185 179 181 181 187 185 189 191 187 189 189 193 192 194 179 183 188 175 163 143 128 144 112 78 86 90 91 88 82 80 80 77 75 67 68 62 64 80 86 66 61 76 71 64 68 68 68 59 51 48 39 38 29 17 12 11 18 9 8 5 3 360 355 354 358 359 353 344 358 355 355 14 13 13 18 10 14 2 349 341 340 330 334 327
185 188 181 181 188 187 188 190 190 189 183 188 195 197 187 174 192 187 168 152 139 140 130 100 80 72 66 65 55 56 60 44 24 25 75 52 56 75 64 78 84 78 89 85 78 66 59 60 62 56 52 44 31 20 16 10 7 8 1 2 2 8 6 358 1 360 358 350 350 356 355 353 8 5 8 13 4 2 358 342 330 330 330 332 334
187 190 185 183 188 186 187 188 189 186 185 187 194 195 187 182 174 184 142 134 130 125 114 113 104 97 83 73 69 60 59 47 32 10 10 56 75 47 49 57 79 87 85 101 99 87 78 63 52 45 47 48 35 19 4 353 351 357 354 357 360 3 7 8 5 2 356 350 348 353 349 1 5 357 2 13 3 348 330 330 324 322 328 329 331
190 193 192 186 185 189 186 188 186 185 188 189 193 187 180 179 165 163 143 139 125 118 122 113 105 103 95 81 75 73 65 58 27 34 36 14 14 72 50 54 55 71 95 101 107 113 104 82 61 47 33 31 28 13 358 335 325 355 346 1 359 6 9 10 9 8 356 343 349 346 350 357 2 351 359 3 340 336 327 333 327 326 331 329 315
191 194 197 190 185 191 189 188 186 187 187 191 188 180 182 171 165 151 147 130 125 125 117 114 108 101 98 94 83 76 63 42 27 35 29 24 11 26 67 47 62 94 107 103 94 88 96 98 86 54 39 24 20 6 356 4 345 297 32 39 12 10 19 20 20 18 2 336 341 348 347 354 350 352 7 345 342 336 328 332 328 337 339 332 325
191 196 197 189 187 192 192 186 190 188 184 187 187 182 173 162 160 149 125 123 121 120 118 108 101 98 96 97 94 87 77 37 39 36 32 25 21 1 62 48 38 37 36 49 67 89 90 74 66 65 45 29 23 3 359 353 344 339 214 204 330 12 311 84 35 20 356 343 341 342 341 354 337 3 352 347 342 335 343 339 338 336 325 321 315
189 197 196 194 190 192 193 190 188 189 183 182 180 179 176 160 157 139 127 124 124 122 110 107 107 110 113 114 108 100 94 38 46 41 37 31 23 12 60 43 54 41 55 56 49 44 56 86 85 61 43 31 19 4 1 349 337 335 168 226 219 211 280 312 316 19 342 335 341 328 341 342 341 351 345 337 335 334 342 333 332 323 317 310 308
191 195 197 197 191 190 194 192 190 186 179 177 179 181 173 156 144 122 121 128 130 117 117 121 125 123 124 122 118 111 84 35 41 44 40 31 24 8 121 73 67 64 64 62 57 58 61 67 72 72 61 40 16 6 355 347 340 327 16 343 315 217 235 215 269 16 346 334 334 320 320 330 319 316 319 324 340 337 335 327 321 317 316 318 317
193 193 197 199 193 189 193 193 195 185 177 182 185 183 173 141 128 127 134 139 131 132 134 135 131 129 127 126 123 104 82 57 55 48 32 28 13 11 75 120 124 124 109 80 55 40 32 65 81 80 70 47 25 2 3 347 335 339 17 359 334 350 359 95 20 7 342 318 326 311 302 301 293 305 301 318 330 306 301 304 304 315 331 313 301
194 193 196 200 199 190 191 194 195 189 186 183 174 161 131 127 129 132 136 133 134 135 135 135 134 129 126 126 120 115 92 45 52 50 34 31 359 338 225 121 123 106 95 87 79 71 50 47 61 80 76 52 18 11 6 348 340 345 356 354 339 344 343 63 18 359 331 313 297 293 292 289 290 286 288 306 299 293 304 308 319 347 327 327 329
196 189 193 197 205 197 192 195 194 191 186 177 166 148 136 140 134 139 139 142 144 143 142 137 127 127 128 127 126 125 130 100 73 58 48 26 4 326 266 143 142 137 128 137 135 136 126 106 92 76 79 60 22 19 5 352 340 347 341 342 346 351 336 359 351 335 329 316 290 276 277 278 274 264 264 261 255 290 316 311 348 343 333 331 330
197 187 189 195 199 204 198 198 194 194 178 180 154 135 136 136 141 143 145 148 147 141 126 121 129 133 132 135 139 142 143 105 105 84 87 34 353 300 321 187 149 153 140 141 141 124 120 117 103 91 92 84 24 24 8 352 352 341 336 346 349 338 336 346 334 328 319 311 295 279 272 274 271 268 266 262 258 241 245 337 343 343 332 326 321
206 197 186 191 192 195 202 204 197 189 182 125 130 139 143 143 142 142 139 143 132 123 128 128 125 122 128 136 148 140 135 131 157 85 73 45 22 360 338 161 163 154 150 143 140 122 103 87 95 103 111 110 74 31 14 3 348 341 329 345 337 331 339 334 328 325 323 321 323 342 337 319 282 237 250 242 241 225 276 7 351 355 334 328 325
203 207 181 177 183 194 205 204 196 153 103 122 149 123 130 139 142 141 132 124 124 121 118 123 129 135 142 146 152 142 127 107 59 61 73 64 49 33 340 357 33 42 150 156 140 132 118 115 104 114 122 131 102 50 351 23 353 330 320 329 330 317 334 327 313 312 309 303 324 347 336 328 330 333 339 47 72 65 37 22 3 346 333 322 327
209 204 198 197 197 194 191 193 167 130 140 138 110 117 136 134 124 121 121 116 111 111 124 138 138 150 155 149 141 132 151 166 132 75 68 63 52 57 357 36 20 6 352 287 141 139 140 139 138 156 162 143 157 312 297 304 314 310 300 302 296 297 321 316 308 312 309 295 306 359 333 332 333 345 359 5 22 19 21 8 356 341 318 313 317
211 213 215 223 208 186 154 117 119 114 112 114 133 136 129 120 121 121 117 119 125 137 148 149 146 127 118 122 135 152 170 165 140 138 97 80 64 55 51 67 16 359 341 358 107 128 126 132 133 176 192 168 186 199 264 282 280 275 273 279 291 300 313 301 299 292 291 295 348 344 332 323 338 342 350 8 10 4 351 348 341 313 305 314 327
282 47 57 62 66 72 72 82 89 95 118 131 121 115 118 119 122 126 130 135 141 140 149 147 133 135 138 151 159 171 151 138 145 134 104 95 97 80 82 74 21 42 12 39 59 76 105 115 137 160 187 223 231 240 246 258 276 259 265 274 282 296 312 298 292 296 281 280 304 275 288 316 330 337 341 2 359 346 324 307 291 291 299 313 315
66 72 73 69 68 71 77 75 81 98 107 98 107 127 134 133 133 137 139 141 140 142 144 144 148 149 159 171 180 158 148 142 142 133 122 122 114 124 114 114 84 46 54 73 75 86 93 110 149 183 206 231 246 250 247 243 247 263 268 271 274 286 289 292 286 278 285 299 293 277 271 331 344 351 356 345 329 315 296 291 308 324 320 312 320
60 78 76 75 78 79 81 90 92 93 114 134 135 122 122 131 131 137 136 140 143 145 151 160 163 167 175 182 171 151 140 130 125 134 143 141 136 131 125 103 77 72 64 64 63 92 130 164 181 203 224 236 245 258 265 257 251 256 262 265 270 266 273 278 283 286 304 329 338 360 8 5 356 343 340 324 311 305 307 338 342 330 329 330 322
43 43 52 58 65 70 71 82 89 91 89 87 114 132 141 147 139 138 141 148 157 162 165 167 172 180 187 190 155 139 138 138 140 150 160 138 130 175 282 321 81 70 47 43 49 38 169 220 242 254 260 255 255 254 253 253 243 247 256 261 247 245 248 262 273 292 316 332 2 5 355 349 335 330 307 305 326 322 343 352 359 345 346 337 336
81 85 96 96 94 101 115 113 123 127 124 123 127 142 147 143 146 150 151 157 166 174 173 172 179 190 195 187 136 135 141 151 153 159 161 144 145 132 166 345 54 37 8 356 318 262 247 228 231 235 239 246 244 250 260 271 275 272 246 233 228 232 236 239 275 339 347 12 8 356 342 331 319 302 303 311 318 325 351 343 344 336 331 329 325
153 165 161 155 154 156 155 153 148 142 142 141 142 144 147 156 158 160 167 168 173 168 173 178 188 194 184 138 135 144 148 160 163 162 156 157 142 143 150 167 84 83 59 4 319 296 295 268 251 254 256 264 256 242 238 230 228 257 350 350 342 360 333 332 347 352 14 15 354 338 326 323 316 320 318 324 331 333 342 346 345 333 331 328 321
145 154 149 139 142 140 141 138 132 133 135 127 92 87 153 167 162 168 169 178 175 164 173 190 197 198 167 148 150 156 168 150 147 118 108 99 105 101 87 79 96 104 129 229 265 321 313 297 295 288 279 299 334 4 8 14 355 350 339 341 355 344 348 351 6 24 0 351 341 339 327 338 332 326 328 342 351 347 356 347 342 336 333 328 321
159 150 150 140 119 129 139 142 141 145 135 110 106 82 53 56 37 124 146 32 89 164 189 198 194 173 110 54 171 167 135 141 128 107 104 101 99 105 107 101 101 112 22 8 63 315 307 292 281 271 317 1 7 351 0 3 356 354 330 349 2 351 351 9 36 3 354 349 345 341 346 336 325 339 349 346 344 344 341 342 335 340 330 328 322
182 171 163 152 137 143 146 150 151 146 124 128 118 112 99 52 47 40 24 74 135 122 114 121 124 126 122 101 67 98 119 124 117 114 114 117 121 125 131 134 110 74 47 37 14 355 304 286 280 326 11 2 343 348 356 0 3 338 338 356 343 344 3 44 23 15 15 12 358 349 342 349 352 355 352 346 343 339 336 344 343 336 331 326 319
189 172 178 141 143 153 159 156 159 144 137 138 125 125 116 115 68 36 35 41 100 116 111 107 110 113 115 116 112 85 104 113 115 115 118 120 124 126 108 86 72 73 63 74 8 295 293 279 322 5 358 331 344 6 360 5 342 339 347 345 325 352 33 62 42 48 21 10 350 339 345 344 350 353 345 334 334 334 340 338 332 328 325 324 320
192 179 180 133 157 167 171 164 157 146 149 148 146 148 146 135 114 95 48 52 63 83 107 113 111 112 112 115 121 126 129 118 112 111 111 111 104 97 108 95 86 74 61 91 231 260 255 260 30 354 337 346 352 348 6 342 333 347 355 333 319 10 23 23 192 124 80 46 359 352 349 345 351 340 327 329 327 324 326 320 324 325 322 316 318
185 174 167 153 167 177 184 165 159 159 157 158 160 157 151 135 129 131 125 121 77 60 56 75 101 105 104 111 112 114 116 117 116 116 116 111 107 97 95 106 142 143 134 246 313 287 288 357 38 344 337 337 327 12 358 339 346 353 347 332 345 356 341 314 348 49 27 13 360 360 1 345 328 318 321 318 317 320 323 331 327 319 318 318 315
192 161 150 155 177 182 178 169 168 163 164 164 162 155 144 143 142 144 141 130 118 107 109 63 53 93 111 106 114 117 120 120 123 124 118 118 117 140 130 108 241 173 164 217 229 252 270 23 32 346 313 335 360 15 339 354 357 348 344 350 344 337 328 344 42 10 353 334 357 8 1 325 315 319 319 329 335 335 329 319 317 316 314 311 308
213 163 153 164 179 187 179 177 173 166 167 166 164 151 141 145 149 145 127 119 121 123 111 88 87 54 88 102 114 118 121 127 128 123 126 124 129 111 101 189 236 232 199 197 217 226 241 42 358 348 353 5 21 354 1 356 353 346 357 353 343 346 334 0 3 353 337 2 7 359 349 337 345 345 346 339 332 320 313 309 305 303 299 295 297
212 184 160 172 182 188 185 173 180 169 161 158 158 143 139 144 146 132 123 125 130 126 119 119 110 91 76 69 90 98 113 116 113 114 108 103 77 58 288 303 274 300 323 352 109 67 48 16 32 337 8 26 0 357 4 349 355 356 9 7 357 330 350 351 344 11 16 8 4 2 1 350 343 336 331 318 308 308 307 308 311 313 312 310 307
246 197 173 180 185 195 177 175 169 147 153 155 161 140 141 140 127 120 141 146 139 132 129 131 131 130 141 148 155 141 126 122 121 111 111 101 95 188 234 232 245 261 258 208 82 63 40 8 15 6 2 18 4 4 6 7 8 9 7 346 317 313 343 352 22 28 21 13 5 354 344 334 325 315 307 305 308 311 317 323 323 317 312 309 308
229 129 125 183 200 199 187 167 157 154 149 113 108 124 125 121 127 150 144 137 145 140 140 143 146 147 151 148 151 149 143 152 166 158 153 176 190 203 220 223 236 234 139 66 78 82 53 20 356 357 26 13 0 24 27 16 2 358 350 317 335 347 12 22 17 15 3 5 352 331 321 312 303 304 310 317 322 327 321 315 310 305 305 304 302
247 83 163 167 131 81 92 113 120 119 119 126 126 124 136 149 161 153 148 149 144 145 147 146 149 148 148 154 152 161 168 154 165 173 178 184 201 206 212 229 220 164 134 99 77 55 115 39 42 24 21 353 25 37 20 13 359 330 327 6 8 10 24 22 9 355 345 328 312 306 293 306 331 341 333 321 317 313 307 302 299 298 295 294 297
88 134 125 130 113 112 111 120 118 123 130 131 138 144 154 153 150 149 146 141 143 146 148 149 148 145 148 154 155 163 164 174 179 198 203 202 197 203 206 198 142 113 101 129 144 60 47 41 38 34 356 23 42 35 23 346 327 337 357 10 34 36 16 2 342 319 307 286 276 307 359 1 345 325 314 309 304 302 300 297 295 296 299 302 310
116 93 94 105 125 120 128 114 111 104 114 135 148 148 132 132 141 141 142 144 146 146 148 154 147 155 145 154 165 173 182 197 200 202 210 212 187 117 82 62 99 118 129 89 68 57 46 49 42 31 9 46 45 28 16 342 322 352 7 15 31 42 7 326 328 294 285 315 16 24 358 333 322 316 305 303 303 302 302 301 303 309 313 312 308
124 120 121 126 119 127 128 129 126 132 139 132 120 132 140 144 146 145 145 150 148 152 152 155 163 169 160 170 172 177 195 217 249 237 234 155 126 129 157 151 187 158 93 76 75 78 71 54 40 15 49 52 38 49 354 320 355 349 4 21 4 21 1 287 284 342 18 15 360 352 337 322 318 311 306 304 306 307 306 310 312 308 302 298 300
137 136 133 137 120 109 116 134 134 138 139 139 140 143 146 146 146 148 151 152 156 159 162 167 176 180 168 173 166 174 190 200 214 231 240 132 142 166 170 183 118 81 85 81 80 79 74 59 48 41 70 65 82 69 328 300 17 17 326 8 22 260 288 16 33 13 2 359 347 334 327 323 318 311 309 310 310 310 309 304 298 295 296 297 299
156 144 153 158 143 147 148 141 136 128 130 131 133 138 148 148 149 152 155 159 164 168 179 170 177 171 161 162 171 182 183 181 193 217 202 179 192 172 161 132 106 103 92 103 92 80 82 81 77 63 83 71 76 75 331 8 352 326 52 243 269 48 57 35 26 15 4 353 348 335 326 323 318 310 306 305 306 301 296 295 298 303 304 302 301
146 153 165 157 149 149 149 141 139 137 143 147 143 146 148 152 151 155 158 167 170 182 198 184 183 165 164 165 172 183 183 176 190 203 219 206 160 146 163 106 89 101 99 91 93 99 92 83 73 111 80 65 43 47 4 336 3 348 341 43 62 61 38 15 3 12 11 2 346 331 317 311 304 303 298 298 296 298 297 301 302 301 300 300 297
143 158 157 160 157 150 146 144 149 151 150 145 147 143 148 150 155 158 164 174 179 193 209 203 183 170 169 169 171 176 185 183 195 201 210 170 136 127 94 93 96 91 103 102 105 118 139 140 154 104 113 73 53 69 254 17 290 50 72 67 58 54 31 352 4 25 20 353 330 328 319 307 302 301 300 299 298 297 299 297 297 295 292 291 294
150 157 164 161 152 149 147 150 148 148 140 142 145 148 151 154 159 167 174 185 195 206 216 226 188 168 173 167 170 171 184 196 203 215 179 151 150 129 109 108 118 121 97 110 127 141 118 108 104 122 144 174 183 212 182 186 256 80 81 73 65 62 20 351 25 37 2 335 329 318 314 303 297 294 293 295 296 296 295 294 292 289 290 291 296
161 161 157 160 157 150 151 150 150 156 150 147 150 157 162 164 174 178 192 196 202 215 222 233 212 173 172 165 167 177 183 199 201 182 155 143 118 100 106 114 107 96 111 157 160 132 125 142 127 115 166 225 208 183 190 221 81 96 95 93 100 97 67 56 42 29 329 316 324 314 300 292 289 288 289 290 291 292 290 291 290 292 296 299 297
165 159 159 155 154 154 147 146 149 151 154 156 162 165 169 178 186 195 198 202 206 209 220 226 220 186 169 161 167 178 181 178 159 157 161 132 130 131 128 125 138 143 169 170 160 138 142 137 133 166 194 225 211 206 183 83 92 92 99 114 126 109 76 53 87 45 356 333 317 299 290 285 283 283 285 287 289 290 289 291 296 297 293 291 290
169 166 161 157 156 156 152 152 153 157 162 164 168 175 184 198 205 205 205 207 210 211 211 211 208 182 165 168 168 166 151 149 153 164 155 131 124 115 122 133 137 146 156 133 114 130 140 142 161 188 189 194 184 165 81 96 89 101 115 122 106 73 55 40 19 4 349 334 302 292 282 282 283 284 284 286 286 288 289 288 287 286 288 287 287